Location: Niedergestelen
(46.3129°N, 7.7822°E)
Time: 13:39:23
(UTC+00:00)

SL-23 DEB - Pass Details

Date: 01 December 2020
Orbit: 425 x 3627 km, 51.4° (Epoch: 26 January)

Event Time Altitude Azimuth Distance (km) Brightness Sun altitude
Rises 16:43:15 0° 223° (SW) 2,423 8.4 -10.0°
Reaches altitude 10° 16:45:05 10° 217° (SW) 1,647 7.2 -10.3°
Maximum altitude 16:48:27 50° 141° (SE) 762 4.4 -10.8°
Enters shadow 16:52:26 15° 70° (ENE) 2,021 6.0 -11.4°
